GW3677 Weather Reports


time (UTC)temp
F
wind
direction
speed
knots
gust
knots
rain 1hr
in
rain 24hr
in
rain mn
in
humidity
%
barometer
mb
20260510171032 87 176 1.7 5.2 0.00 0.00 0.00 69 1016.1
20260510170523 86 273 4.3 6.1 0.00 0.00 0.00 72 1016.1
20260510170020 86 272 6.1 8.7 0.00 0.00 0.00 72 1016.1
20260510165515 87 262 7.0 8.7 0.00 0.00 0.00 70 1016.1
20260510165012 86 269 2.6 12.2 0.00 0.00 0.00 72 1016.4
20260510164509 86 245 5.2 7.0 0.00 0.00 0.00 71 1016.2
20260510164005 85 258 6.1 7.8 0.00 0.00 0.00 73 1016.3
20260510163501 87 285 6.1 8.7 0.00 0.00 0.00 71 1016.2
20260510162955 88 284 2.6 8.7 0.00 0.00 0.00 71 1016.4
20260510162447 88 306 6.1 7.8 0.00 0.00 0.00 69 1016.3
20260510161943 88 185 3.5 5.2 0.00 0.00 0.00 68 1016.1
20260510161438 88 240 6.1 8.7 0.00 0.00 0.00 68 1016.3
20260510160936 89 250 5.2 8.7 0.00 0.00 0.00 68 1016.4
20260510160432 89 202 2.6 7.0 0.00 0.00 0.00 68 1016.4
20260510155925 88 247 5.2 8.7 0.00 0.00 0.00 70 1016.2
20260510155423 88 89 0.9 2.6 0.00 0.00 0.00 71 1016.2
20260510154919 86 243 3.5 6.1 0.00 0.00 0.00 72 1016.4
20260510154415 87 262 2.6 6.1 0.00 0.00 0.00 73 1016.4
20260510153909 89 281 6.1 7.0 0.00 0.00 0.00 70 1016.3
20260510153406 87 165 1.7 6.1 0.00 0.00 0.00 73 1016.3
20260510152902 86 131 2.6 6.1 0.00 0.00 0.00 74 1016.1
20260510152400 86 227 3.5 7.0 0.00 0.00 0.00 73 1016.1
20260510151855 86 177 2.6 6.1 0.00 0.00 0.00 74 1016.2
20260510151354 84 154 2.6 2.6 0.00 0.00 0.00 79 1016.1
20260510150850 82 256 3.5 7.0 0.00 0.00 0.00 83 1016.2
20260510150345 82 190 1.7 2.6 0.00 0.00 0.00 82 1016.4
20260510145841 82 261 2.6 4.3 0.00 0.00 0.00 81 1016.1
20260510145338 83 286 2.6 6.1 0.00 0.00 0.00 79 1016.2
20260510144835 84 203 1.7 2.6 0.00 0.00 0.00 78 1015.9
20260510144331 85 262 2.6 4.3 0.00 0.00 0.00 78 1016.1
20260510143831 85 172 1.7 2.6 0.00 0.00 0.00 78 1016.0
20260510143327 84 125 0.9 2.6 0.00 0.00 0.00 78 1016.2
20260510142825 84 139 0.0 2.6 0.00 0.00 0.00 80 1016.2
20260510142321 84 263 6.1 7.0 0.00 0.00 0.00 80 1015.8
20260510141818 83 186 1.7 5.2 0.00 0.00 0.00 81 1015.9
20260510141316 84 129 2.6 5.2 0.00 0.00 0.00 79 1016.0
20260510140813 84 123 2.6 2.6 0.00 0.00 0.00 79 1015.7
20260510140308 83 123 3.5 4.3 0.00 0.00 0.00 82 1015.7
20260510135802 83 142 2.6 5.2 0.00 0.00 0.00 81 1015.7
20260510135258 83 193 0.0 2.6 0.00 0.00 0.00 82 1015.8
20260510134756 82 228 1.7 4.3 0.00 0.00 0.00 83 1015.9
20260510134253 81 150 0.0 2.6 0.00 0.00 0.00 85 1015.8
20260510133748 80 111 2.6 4.3 0.00 0.00 0.00 85 1015.8
20260510133244 80 209 0.9 4.3 0.00 0.00 0.00 85 1015.6
20260510132740 80 193 1.7 5.2 0.00 0.00 0.00 85 1015.6
20260510132238 81 130 1.7 5.2 0.00 0.00 0.00 84 1015.5
20260510131735 80 146 2.6 4.3 0.00 0.00 0.00 85 1015.7
20260510131233 80 129 0.9 4.3 0.00 0.00 0.00 84 1015.6
20260510130729 80 150 1.7 1.7 0.00 0.00 0.00 85 1015.5
20260510130226 80 138 0.0 0.9 0.00 0.00 0.00 85 1015.6
20260510125722 80 164 0.9 2.6 0.00 0.00 0.00 85 1015.6
20260510125219 79 131 0.9 2.6 0.00 0.00 0.00 87 1015.6
20260510124715 77 207 2.6 5.2 0.00 0.00 0.00 89 1015.4
20260510124213 76 133 1.7 2.6 0.00 0.00 0.00 91 1015.5
20260510123708 75 133 0.9 1.7 0.00 0.00 0.00 95 1015.5
20260510123204 73 131 1.7 4.3 0.00 0.00 0.00 99 1015.5
20260510122700 73 139 0.9 0.9 0.00 0.00 0.00 99 1015.4
20260510122156 72 142 0.0 0.0 0.00 0.00 0.00 99 1015.4
20260510121653 71 141 0.0 0.0 0.00 0.00 0.00 99 1015.3
20260510121150 71 140 0.0 0.0 0.00 0.00 0.00 99 1015.1
20260510120648 70 140 0.0 0.0 0.00 0.00 0.00 99 1015.1
20260510120143 69 140 0.0 0.0 0.00 0.00 0.00 99 1015.1
20260510115639 69 140 0.0 0.0 0.00 0.00 0.00 99 1015.3
20260510115138 69 140 0.0 0.0 0.00 0.00 0.00 99 1015.0
20260510114633 69 140 0.0 0.0 0.00 0.00 0.00 99 1014.7
20260510114130 68 140 0.0 0.0 0.00 0.00 0.00 99 1014.8
20260510113625 68 140 0.0 0.0 0.00 0.00 0.00 99 1014.6
20260510113122 68 140 0.0 0.0 0.00 0.00 0.00 99 1014.7
20260510112619 68 140 0.0 0.0 0.00 0.00 0.00 99 1014.7
20260510112115 68 140 0.0 0.0 0.00 0.00 0.00 99 1014.5
20260510111612 67 140 0.0 0.0 0.00 0.00 0.00 99 1014.4
20260510111108 67 140 0.0 0.0 0.00 0.00 0.00 99 1014.3
20260510110604 67 140 0.0 0.0 0.00 0.00 0.00 99 1014.1
20260510110101 67 140 0.0 0.0 0.00 0.00 0.00 99 1014.0
20260510105556 67 140 0.0 0.0 0.00 0.00 0.00 99 1014.1
20260510105051 66 140 0.0 0.0 0.00 0.00 0.00 99 1013.9
20260510104548 66 140 0.0 0.0 0.00 0.00 0.00 99 1013.9
20260510104044 66 140 0.0 0.0 0.00 0.00 0.00 99 1013.8
20260510103542 66 140 0.0 0.0 0.00 0.00 0.00 99 1013.9
20260510103038 66 140 0.0 0.0 0.00 0.00 0.00 99 1013.8
20260510102533 66 140 0.0 0.0 0.00 0.00 0.00 99 1013.6
20260510102030 66 140 0.0 0.0 0.00 0.00 0.00 99 1013.6
20260510101528 66 140 0.0 0.0 0.00 0.00 0.00 99 1013.7
20260510101026 66 140 0.0 0.0 0.00 0.00 0.00 99 1013.6
20260510100522 66 140 0.0 0.0 0.00 0.00 0.00 99 1013.6
20260510100019 67 140 0.0 0.0 0.00 0.00 0.00 99 1013.6
20260510095515 67 140 0.0 0.0 0.00 0.00 0.00 99 1013.4
20260510095014 67 140 0.0 0.0 0.00 0.00 0.00 99 1013.5
20260510094508 67 140 0.0 0.0 0.00 0.00 0.00 99 1013.6
20260510094004 67 140 0.0 0.0 0.00 0.00 0.00 99 1013.3
20260510093500 68 140 0.0 0.0 0.00 0.00 0.00 99 1013.3
20260510092957 68 140 0.0 0.0 0.00 0.00 0.00 99 1013.4
20260510092454 68 140 0.0 0.0 0.00 0.00 0.00 99 1013.2
20260510091954 68 139 0.0 0.0 0.00 0.00 0.00 99 1013.0
20260510091451 68 140 0.0 0.0 0.00 0.00 0.00 99 1013.1
20260510090947 68 140 0.0 0.0 0.00 0.00 0.00 99 1013.0
20260510090445 68 140 0.0 0.0 0.00 0.00 0.00 99 1012.8
20260510085939 68 140 0.0 0.0 0.00 0.00 0.00 99 1012.8
20260510085435 69 140 0.0 0.0 0.00 0.00 0.00 99 1012.8
20260510084931 68 140 0.0 0.0 0.00 0.00 0.00 99 1012.7
20260510084428 68 140 0.0 0.0 0.00 0.00 0.00 99 1012.6
20260510083924 68 140 0.0 0.0 0.00 0.00 0.00 99 1012.7
20260510083421 68 140 0.0 0.0 0.00 0.00 0.00 99 1012.8
20260510082911 69 140 0.0 0.0 0.00 0.00 0.00 99 1012.6
20260510082409 69 140 0.0 0.0 0.00 0.00 0.00 99 1012.6
20260510081907 69 140 0.0 0.0 0.00 0.00 0.00 99 1012.6
20260510081403 70 140 0.0 0.0 0.00 0.00 0.00 98 1012.6
20260510080901 69 140 0.0 0.0 0.00 0.00 0.00 98 1012.6
20260510080354 69 140 0.0 0.0 0.00 0.00 0.00 98 1012.5
20260510075852 69 140 0.0 0.0 0.00 0.00 0.00 98 1012.5
20260510075350 70 140 0.0 0.0 0.00 0.00 0.00 98 1012.4
20260510074845 70 140 0.0 0.0 0.00 0.00 0.00 97 1012.4
20260510074343 70 139 0.0 0.0 0.00 0.00 0.00 97 1012.4
20260510073839 71 139 0.0 0.0 0.00 0.00 0.00 96 1012.6
20260510073335 71 140 0.0 0.0 0.00 0.00 0.00 96 1012.6
20260510072831 71 139 0.0 0.0 0.00 0.00 0.00 95 1012.5
20260510072328 71 139 0.0 0.0 0.00 0.00 0.00 94 1012.5
20260510071819 72 139 0.0 1.7 0.00 0.00 0.00 94 1012.6
20260510071315 72 141 0.9 1.7 0.00 0.00 0.00 94 1012.6
20260510070814 72 155 0.9 1.7 0.00 0.00 0.00 94 1012.6
20260510070311 72 138 0.9 1.7 0.00 0.00 0.00 94 1012.4
20260510065810 72 124 0.9 4.3 0.00 0.00 0.00 94 1012.5
20260510065307 72 147 1.7 1.7 0.00 0.00 0.00 94 1012.7
20260510064804 72 135 0.0 1.7 0.00 0.00 0.00 94 1012.6
20260510064302 72 148 0.9 0.9 0.00 0.00 0.00 93 1012.5
20260510063757 72 146 0.9 1.7 0.00 0.00 0.00 93 1012.7
20260510063254 72 142 0.9 1.7 0.00 0.00 0.00 93 1012.9
20260510062750 72 117 0.0 0.9 0.00 0.00 0.00 92 1012.8
20260510062241 72 84 0.9 1.7 0.00 0.00 0.00 92 1012.8
20260510061736 72 140 0.9 1.7 0.00 0.00 0.00 92 1012.8
20260510061234 72 145 1.7 2.6 0.00 0.00 0.00 92 1012.8
20260510060730 72 141 0.9 1.7 0.00 0.00 0.00 92 1013.0
20260510060227 72 155 2.6 2.6 0.00 0.00 0.00 92 1013.0
20260510055723 72 113 1.7 2.6 0.00 0.00 0.00 92 1013.0
20260510055221 72 133 0.9 1.7 0.00 0.00 0.00 92 1013.0
20260510054716 72 118 1.7 4.3 0.00 0.00 0.00 93 1013.1
20260510054212 71 168 1.7 6.1 0.00 0.00 0.00 93 1013.0
20260510053712 71 112 2.6 4.3 0.00 0.00 0.00 93 1013.2
20260510053209 71 115 3.5 6.1 0.00 0.00 0.00 94 1013.2
20260510052704 71 140 1.7 4.3 0.00 0.00 0.00 94 1013.3
20260510052200 70 113 2.6 2.6 0.00 0.00 0.00 95 1013.4
20260510051656 70 129 0.9 2.6 0.00 0.00 0.00 95 1013.7
20260510051153 70 126 1.7 1.7 0.00 0.00 0.00 96 1013.8
20260510050650 70 132 0.0 0.9 0.00 0.00 0.00 96 1013.8
20260510050148 70 139 0.0 0.9 0.00 0.00 0.00 96 1013.9
20260510045644 70 134 0.0 0.0 0.00 0.00 0.00 96 1013.9
20260510045141 70 133 0.0 0.0 0.00 0.00 0.00 96 1013.8
20260510044637 70 133 0.0 0.0 0.00 0.00 0.00 96 1014.1
20260510044135 70 133 0.9 1.7 0.00 0.00 0.00 96 1014.1
20260510043630 70 124 0.9 0.9 0.00 0.00 0.00 96 1014.1
20260510043127 69 167 0.0 0.9 0.00 0.00 0.00 97 1014.3
20260510042625 69 167 0.0 0.9 0.00 0.00 0.00 97 1014.3
20260510042120 69 26 0.0 0.0 0.00 0.00 0.00 97 1014.3
20260510041618 69 26 0.0 0.0 0.00 0.00 0.00 97 1014.4
20260510041114 69 26 0.0 0.0 0.00 0.00 0.00 97 1014.3
20260510040611 69 26 0.0 0.0 0.00 0.00 0.00 97 1014.5
20260510040108 69 26 0.0 0.0 0.00 0.00 0.00 97 1014.6
20260510035603 69 26 0.0 0.0 0.00 0.00 0.00 98 1014.6
20260510035058 69 26 0.0 0.0 0.00 0.00 0.00 98 1014.6
20260510034556 69 26 0.0 0.0 0.00 0.00 0.00 98 1014.8
20260510034053 69 26 0.0 0.0 0.00 0.00 0.00 98 1014.8
20260510033549 69 26 0.0 0.0 0.00 0.00 0.00 98 1014.8
20260510033047 69 26 0.0 0.0 0.00 0.00 0.00 98 1014.9
20260510032543 69 26 0.0 0.0 0.00 0.00 0.00 98 1014.7
20260510032038 69 26 0.0 0.0 0.00 0.00 0.00 98 1014.7
20260510031528 69 26 0.0 0.0 0.00 0.00 0.00 98 1014.7
20260510031024 69 26 0.0 0.0 0.00 0.00 0.00 97 1014.5
20260510030520 69 26 0.0 0.0 0.00 0.00 0.00 97 1014.5
20260510030017 69 26 0.0 0.0 0.00 0.00 0.00 97 1014.5
20260510025514 69 26 0.0 0.0 0.00 0.00 0.00 97 1014.7
20260510025011 69 26 0.0 0.0 0.00 0.00 0.00 97 1014.6
20260510024502 69 26 0.0 0.0 0.00 0.00 0.00 97 1014.3
20260510023958 69 26 0.0 0.0 0.00 0.00 0.00 96 1014.3
20260510023454 70 26 0.0 0.0 0.00 0.00 0.00 96 1014.3
20260510022951 70 26 0.0 0.0 0.00 0.00 0.00 96 1014.4
20260510022450 70 26 0.0 0.0 0.00 0.00 0.00 96 1014.5
20260510021949 70 25 0.0 0.0 0.00 0.00 0.00 96 1014.2
20260510021448 70 31 0.0 0.0 0.00 0.00 0.00 96 1014.0
20260510020944 70 31 0.0 0.0 0.00 0.00 0.00 96 1014.0
20260510020439 70 31 0.0 0.0 0.00 0.00 0.00 95 1014.0
20260510015935 70 31 0.0 0.0 0.00 0.00 0.00 95 1014.1
20260510015431 70 31 0.0 0.0 0.00 0.00 0.00 95 1013.8
20260510014926 70 34 0.0 0.0 0.00 0.00 0.00 95 1013.8
20260510014424 70 35 0.0 0.0 0.00 0.00 0.00 95 1013.5
20260510013920 71 35 0.0 0.9 0.00 0.00 0.00 95 1013.3
20260510013415 71 35 0.9 0.9 0.00 0.00 0.00 95 1013.3
20260510012911 71 22 0.0 0.0 0.00 0.00 0.00 95 1013.4
20260510012406 71 22 0.0 0.9 0.00 0.00 0.00 95 1013.3
20260510011901 71 13 0.0 0.0 0.00 0.00 0.00 95 1013.5
20260510011356 71 13 0.0 0.0 0.00 0.00 0.00 94 1013.4
20260510010852 71 13 0.0 0.0 0.00 0.00 0.00 94 1013.5
20260510010350 71 13 0.0 0.0 0.00 0.00 0.00 94 1013.2
20260510005846 71 13 0.0 0.0 0.00 0.00 0.00 94 1013.2
20260510005343 71 13 0.0 0.0 0.00 0.00 0.00 94 1013.1
20260510004840 71 13 0.0 0.9 0.00 0.00 0.00 94 1013.2
20260510004338 71 12 0.0 0.0 0.00 0.00 0.00 94 1013.0
20260510003836 71 12 0.0 0.0 0.00 0.00 0.00 94 1013.2
20260510003332 71 40 0.0 0.9 0.00 0.00 0.00 94 1013.1
20260510002831 71 58 0.9 1.7 0.00 0.00 0.00 94 1012.6
20260510002328 71 60 0.9 0.9 0.00 0.00 0.00 94 1012.6
20260510001825 71 73 0.9 0.9 0.00 0.00 0.00 94 1012.7
20260510001323 71 73 0.9 1.7 0.00 0.00 0.00 94 1012.9
20260510000819 71 35 0.9 1.7 0.00 0.00 0.00 93 1012.9
20260510000318 71 17 0.9 0.9 0.00 0.00 0.00 93 1012.9
20260509235813 71 59 0.9 0.9 0.00 0.00 0.00 93 1012.9
20260509235310 71 36 0.9 1.7 0.00 0.00 0.00 93 1012.9
20260509234806 71 10 2.6 5.2 0.00 0.00 0.00 93 1013.1
20260509234302 71 52 1.7 5.2 0.00 0.00 0.00 93 1013.2
20260509233801 71 50 3.5 4.3 0.00 0.00 0.00 93 1012.9
20260509233258 71 59 1.7 1.7 0.00 0.00 0.00 93 1012.9
20260509232754 71 346 0.9 1.7 0.00 0.00 0.00 93 1012.7
20260509232251 71 55 1.7 2.6 0.00 0.00 0.00 93 1012.6
20260509231747 71 321 4.3 5.2 0.00 0.00 0.00 93 1012.7
20260509231245 71 11 1.7 6.1 0.00 0.00 0.00 93 1012.9
20260509230742 72 23 2.6 4.3 0.00 0.00 0.00 93 1012.8
20260509230239 72 14 2.6 6.1 0.00 0.00 0.00 93 1012.8
20260509225734 72 18 1.7 2.6 0.00 0.00 0.00 92 1012.6
20260509225231 72 348 3.5 5.2 0.00 0.00 0.00 91 1013.0
20260509224726 72 27 2.6 2.6 0.00 0.00 0.00 90 1013.1
20260509224224 73 301 2.6 6.1 0.00 0.00 0.00 90 1013.2
20260509223720 73 236 2.6 7.0 0.00 0.00 0.00 89 1013.2
20260509223217 73 356 4.3 7.8 0.00 0.00 0.00 88 1013.1
20260509222714 74 319 2.6 4.3 0.00 0.00 0.00 87 1013.1
20260509222209 74 317 2.6 5.2 0.00 0.00 0.00 86 1013.1
20260509221705 74 5 6.1 7.8 0.00 0.00 0.00 85 1013.0
20260509221202 75 307 3.5 4.3 0.00 0.00 0.00 85 1013.2
20260509220658 75 298 4.3 5.2 0.00 0.00 0.00 85 1013.3
20260509220154 76 7 4.3 7.0 0.00 0.00 0.00 84 1013.1
20260509215650 76 37 1.7 5.2 0.00 0.00 0.00 85 1012.9
20260509215147 76 28 3.5 6.1 0.00 0.00 0.00 84 1013.0
20260509214644 77 2 3.5 7.8 0.00 0.00 0.00 83 1012.9
20260509214141 79 322 1.7 6.1 0.00 0.00 0.00 82 1012.7
20260509213638 81 263 2.6 2.6 0.00 0.00 0.00 80 1012.6
20260509213133 81 253 2.6 4.3 0.00 0.00 0.00 80 1012.3
20260509212631 81 304 1.7 4.3 0.00 0.00 0.00 80 1012.4
20260509212127 81 256 2.6 5.2 0.00 0.00 0.00 79 1012.5
20260509211624 81 324 2.6 2.6 0.00 0.00 0.00 79 1012.2
20260509211120 82 237 1.7 5.2 0.00 0.00 0.00 79 1012.0
20260509210617 82 266 2.6 4.3 0.00 0.00 0.00 77 1011.9
20260509210114 82 251 2.6 4.3 0.00 0.00 0.00 77 1012.0
20260509205608 82 307 3.5 4.3 0.00 0.00 0.00 77 1011.9
20260509205103 82 243 4.3 7.0 0.00 0.00 0.00 77 1011.6
20260509204600 82 242 0.9 4.3 0.00 0.00 0.00 79 1011.7
20260509204057 82 286 3.5 6.1 0.00 0.00 0.00 78 1011.8
20260509203552 82 256 2.6 5.2 0.00 0.00 0.00 79 1011.9
20260509203050 82 259 3.5 6.1 0.00 0.00 0.00 79 1011.8
20260509202545 82 293 3.5 6.1 0.00 0.00 0.00 80 1012.1
20260509202041 82 297 2.6 4.3 0.00 0.00 0.00 81 1012.0
20260509201536 81 251 2.6 6.1 0.00 0.00 0.00 81 1012.0
20260509201034 82 342 3.5 5.2 0.00 0.00 0.00 80 1012.1
20260509200533 81 290 4.3 5.2 0.00 0.00 0.00 80 1012.0
20260509200030 81 303 2.6 7.0 0.00 0.00 0.00 81 1012.1
20260509195525 81 287 4.3 7.8 0.00 0.00 0.00 81 1012.3
20260509195019 81 324 2.6 4.3 0.00 0.00 0.00 82 1012.0
20260509194515 81 233 2.6 2.6 0.00 0.00 0.00 83 1012.2
20260509194012 81 240 2.6 4.3 0.00 0.00 0.00 83 1012.1
20260509193507 81 295 2.6 2.6 0.00 0.00 0.00 83 1012.2
20260509193004 81 189 3.5 7.0 0.00 0.00 0.00 83 1012.2
20260509192500 80 211 1.7 4.3 0.00 0.00 0.00 83 1012.2
20260509191955 80 243 2.6 5.2 0.00 0.00 0.00 83 1012.3
20260509191450 81 237 4.3 6.1 0.00 0.00 0.00 82 1012.3
20260509190946 81 260 0.9 5.2 0.00 0.00 0.00 82 1012.3
20260509190443 81 259 4.3 6.1 0.00 0.00 0.00 82 1012.5
20260509185941 81 319 1.7 4.3 0.00 0.00 0.00 83 1012.4
20260509185438 82 261 5.2 7.0 0.00 0.00 0.00 82 1012.6
20260509184935 82 252 3.5 4.3 0.00 0.00 0.00 82 1012.6
20260509184433 81 226 3.5 7.0 0.00 0.00 0.00 83 1012.5
20260509183929 82 230 2.6 6.1 0.00 0.00 0.00 83 1012.7
20260509183423 81 229 0.9 5.2 0.00 0.00 0.00 83 1012.8
20260509182920 81 256 2.6 6.1 0.00 0.00 0.00 83 1012.8
20260509182417 82 258 2.6 5.2 0.00 0.00 0.00 81 1012.8
20260509181914 82 276 1.7 4.3 0.00 0.00 0.00 81 1012.8
20260509181412 82 232 1.7 4.3 0.00 0.00 0.00 80 1012.7
20260509180909 83 253 5.2 7.0 0.00 0.00 0.00 80 1012.9
20260509180404 82 246 0.9 5.2 0.00 0.00 0.00 81 1012.6
20260509175901 83 203 3.5 8.7 0.00 0.00 0.00 80 1012.8
20260509175357 83 254 2.6 4.3 0.00 0.00 0.00 79 1012.8
20260509174853 84 225 2.6 7.0 0.00 0.00 0.00 77 1013.0
20260509174349 84 245 5.2 6.1 0.00 0.00 0.00 77 1013.1
20260509173845 85 254 6.1 7.8 0.00 0.00 0.00 75 1012.9
20260509173340 84 179 3.5 7.0 0.00 0.00 0.00 75 1013.0
20260509172837 86 207 3.5 7.8 0.00 0.00 0.00 74 1013.2
20260509172334 86 230 5.2 7.8 0.00 0.00 0.00 73 1013.1
20260509171830 85 207 1.7 2.6 0.00 0.00 0.00 72 1013.0